Bellaire, MI

10:59 PM EDT on March 22, 2017 (GMT -0400)
Antrim County

Weather History for KACB - October, 2012

Change the Weather History Date:

Thursday, October 25, 2012

  Actual Average (KCVX) Record (KCVX)
Temperature  
Mean Temperature 66 °F -  
Max Temperature 80 °F 55 °F 78 °F (2012)
Min Temperature 50 °F 45 °F 32 °F (2002)
Growing Degree Days 16 (Base 50)    
Moisture  
Dew Point 58 °F    
Average Humidity 66    
Maximum Humidity 90    
Minimum Humidity 40    
Precipitation  
Precipitation 0.00 in - - ()
Sea Level Pressure  
Sea Level Pressure 29.71 in    
Wind  
Wind Speed 9 mph (SSE)    
Max Wind Speed 17 mph    
Max Gust Speed 29 mph    
Visibility 10 miles    
Events Rain    
Averages and records for this station are not official NWS values.
T = Trace of Precipitation, MM = Missing Value Source: NWS Daily Summary

Daily Weather History Graph

Daily Weather History Graph

Search for Another Location

Airport or City:

Trip Planner

Search our weather history database for the weather conditions in past years. The results will help you decide how hot, cold, wet, or windy it might be!

Date:

Astronomy

Oct. 25, 2012 Rise Set
Actual Time 8:10 AM EDT 6:38 PM EDT
Civil Twilight 7:40 AM EDT 7:08 PM EDT
Nautical Twilight 7:05 AM EDT 7:42 PM EDT
Astronomical Twilight 6:31 AM EDT 8:16 PM EDT
Moon 4:32 PM EDT (10/25) 3:56 AM EDT (10/25)
Length of Visible Light 11h 28m
Length of Day
10h 28m
Waxing Gibbous, 84% of the Moon is Illuminated
Oct 25
Waxing Gibbous
Oct 29
Full
Nov 6
Last Quarter
Nov 13
New
Nov 20
First Quarter

Hourly Weather History & Observations

Time (EDT) Temp. Heat Index Dew Point Humidity Pressure Visibility Wind Dir Wind Speed Gust Speed Precip Events Conditions
12:12 AM 68.9 °F - 61.0 °F 76% 29.85 in 10.0 mi SE 8.1 mph 16.1 mph N/A   Mostly Cloudy
12:33 AM 68.0 °F - 60.8 °F 78% 29.85 in 10.0 mi SE 6.9 mph - N/A   Scattered Clouds
12:52 AM 68.2 °F - 60.8 °F 77% 29.83 in 10.0 mi SSE 5.8 mph - N/A   Clear
1:12 AM 68.0 °F - 60.8 °F 78% 29.84 in 10.0 mi East 4.6 mph - N/A   Clear
1:33 AM 68.0 °F - 60.8 °F 78% 29.84 in 10.0 mi East 4.6 mph - N/A   Mostly Cloudy
1:52 AM 68.2 °F - 60.8 °F 77% 29.84 in 10.0 mi East 4.6 mph - N/A   Overcast
2:12 AM 68.0 °F - 61.0 °F 78% 29.84 in 10.0 mi East 4.6 mph - N/A   Overcast
2:33 AM 67.8 °F - 60.8 °F 78% 29.83 in 10.0 mi ENE 3.5 mph - N/A   Overcast
2:53 AM 67.5 °F - 60.8 °F 79% 29.83 in 10.0 mi ESE 5.8 mph - N/A   Overcast
3:32 AM 67.5 °F - 61.0 °F 80% 29.82 in 10.0 mi East 4.6 mph - N/A   Scattered Clouds
3:52 AM 67.1 °F - 61.0 °F 81% 29.82 in 10.0 mi ESE 6.9 mph - N/A   Clear
4:12 AM 68.0 °F - 61.3 °F 79% 29.80 in 10.0 mi SE 9.2 mph - N/A   Clear
4:33 AM 68.4 °F - 61.3 °F 78% 29.78 in 10.0 mi SE 10.4 mph 17.3 mph N/A   Scattered Clouds
4:52 AM 68.0 °F - 61.2 °F 79% 29.78 in 10.0 mi SE 8.1 mph - N/A   Scattered Clouds
5:12 AM 68.0 °F - 61.2 °F 79% 29.78 in 10.0 mi SE 8.1 mph - N/A   Clear
5:33 AM 68.2 °F - 61.2 °F 78% 29.77 in 10.0 mi SE 10.4 mph 16.1 mph N/A   Clear
5:52 AM 68.0 °F - 61.0 °F 78% 29.77 in 10.0 mi SE 9.2 mph - N/A   Clear
6:12 AM 68.0 °F - 61.0 °F 78% 29.77 in 10.0 mi SE 8.1 mph - N/A   Clear
6:33 AM 68.0 °F - 60.8 °F 78% 29.76 in 10.0 mi SE 9.2 mph - N/A   Clear
6:52 AM 68.0 °F - 60.8 °F 78% 29.76 in 10.0 mi SE 9.2 mph - N/A   Clear
7:12 AM 67.5 °F - 60.4 °F 78% 29.78 in 10.0 mi East 5.8 mph - N/A   Clear
8:13 AM 67.3 °F - 59.9 °F 77% 29.75 in 10.0 mi SE 11.5 mph 17.3 mph N/A   Clear
8:33 AM 67.6 °F - 59.9 °F 76% 29.75 in 10.0 mi SE 9.2 mph 17.3 mph N/A   Clear
8:52 AM 68.0 °F - 59.9 °F 75% 29.75 in 10.0 mi SE 10.4 mph 20.7 mph N/A   Clear
9:32 AM 68.4 °F - 59.9 °F 74% 29.76 in 10.0 mi SSE 9.2 mph - N/A   Clear
9:53 AM 69.4 °F - 59.9 °F 72% 29.75 in 10.0 mi SE 11.5 mph 25.3 mph N/A   Clear
10:13 AM 70.2 °F - 59.9 °F 70% 29.75 in 10.0 mi SE 12.7 mph 23.0 mph N/A   Clear
10:32 AM 70.9 °F - 59.9 °F 68% 29.74 in 10.0 mi SE 17.3 mph 26.5 mph N/A   Clear
10:53 AM 71.8 °F - 60.1 °F 67% 29.72 in 10.0 mi SE 12.7 mph 24.2 mph N/A   Clear
11:12 AM 72.9 °F - 60.1 °F 64% 29.72 in 10.0 mi SSE 17.3 mph 28.8 mph N/A   Scattered Clouds
11:32 AM 73.8 °F - 60.1 °F 62% 29.71 in 10.0 mi SSE 16.1 mph 28.8 mph N/A   Scattered Clouds
11:53 AM 73.8 °F - 59.9 °F 62% 29.69 in 10.0 mi SE 17.3 mph 28.8 mph N/A   Scattered Clouds
12:12 PM 75.2 °F - 59.7 °F 58% 29.68 in 10.0 mi SSE 17.3 mph 26.5 mph N/A   Clear
12:32 PM 75.6 °F - 59.4 °F 57% 29.68 in 10.0 mi SE 15.0 mph 24.2 mph N/A   Clear
1:12 PM 77.5 °F - 58.3 °F 51% 29.66 in 10.0 mi SSE 15.0 mph 20.7 mph N/A   Clear
1:33 PM 79.0 °F - 57.7 °F 48% 29.65 in 10.0 mi SSE 15.0 mph 26.5 mph N/A   Clear
1:53 PM 78.4 °F - 56.8 °F 47% 29.65 in 10.0 mi SSE 6.9 mph 21.9 mph N/A   Clear
2:12 PM 79.9 °F - 56.3 °F 44% 29.64 in 10.0 mi SSE 8.1 mph 18.4 mph N/A   Scattered Clouds
2:33 PM 80.6 °F 80.5 °F 55.6 °F 42% 29.63 in 10.0 mi SSE 8.1 mph 23.0 mph N/A   Scattered Clouds
2:53 PM 80.6 °F 80.4 °F 54.7 °F 41% 29.63 in 10.0 mi SSE 16.1 mph 23.0 mph N/A   Clear
3:12 PM 80.1 °F 80.1 °F 54.5 °F 41% 29.63 in 10.0 mi South 12.7 mph 20.7 mph N/A   Clear
3:33 PM 80.6 °F 80.4 °F 54.3 °F 40% 29.62 in 10.0 mi South 10.4 mph 27.6 mph N/A   Clear
4:12 PM 79.0 °F - 55.9 °F 45% 29.63 in 10.0 mi South 8.1 mph 19.6 mph N/A   Scattered Clouds
4:33 PM 79.0 °F - 55.9 °F 45% 29.62 in 10.0 mi SSE 11.5 mph 19.6 mph N/A   Scattered Clouds
4:52 PM 77.9 °F - 55.9 °F 47% 29.62 in 10.0 mi SSE 9.2 mph 21.9 mph N/A   Mostly Cloudy
5:13 PM 77.9 °F - 56.3 °F 47% 29.62 in 10.0 mi South 6.9 mph 16.1 mph N/A   Mostly Cloudy
5:33 PM 77.2 °F - 56.7 °F 49% 29.61 in 10.0 mi SSE 8.1 mph - N/A   Overcast
5:52 PM 77.0 °F - 56.7 °F 49% 29.62 in 10.0 mi SSE 8.1 mph - N/A   Overcast
6:13 PM 76.6 °F - 56.7 °F 50% 29.62 in 10.0 mi South 9.2 mph 17.3 mph N/A   Overcast
6:33 PM 76.8 °F - 56.3 °F 49% 29.61 in 10.0 mi SE 10.4 mph 25.3 mph N/A   Overcast
6:52 PM 76.8 °F - 56.5 °F 49% 29.62 in 10.0 mi SSE 8.1 mph 24.2 mph N/A   Overcast
7:13 PM 76.1 °F - 56.7 °F 51% 29.62 in 10.0 mi South 9.2 mph 21.9 mph N/A   Overcast
7:33 PM 76.1 °F - 56.7 °F 51% 29.62 in 10.0 mi South 9.2 mph 17.3 mph N/A   Overcast
7:52 PM 75.6 °F - 56.7 °F 52% 29.62 in 10.0 mi SSE 11.5 mph 21.9 mph N/A   Overcast
8:13 PM 75.2 °F - 56.8 °F 53% 29.62 in 10.0 mi South 12.7 mph 23.0 mph N/A   Overcast
8:33 PM 75.6 °F - 57.4 °F 53% 29.62 in 10.0 mi South 12.7 mph 18.4 mph N/A   Overcast
8:52 PM 75.4 °F - 57.6 °F 54% 29.60 in 10.0 mi SSE 17.3 mph 24.2 mph N/A   Overcast
9:13 PM 75.2 °F - 57.7 °F 54% 29.60 in 10.0 mi SSE 11.5 mph 23.0 mph N/A   Overcast
9:33 PM 70.3 °F - 61.7 °F 74% 29.64 in 5.0 mi WSW 12.7 mph 26.5 mph N/A Rain Heavy Rain
9:53 PM 64.2 °F - 59.5 °F 85% 29.65 in 10.0 mi WSW 9.2 mph 19.6 mph N/A Rain Light Rain
10:13 PM 62.6 °F - 57.4 °F 83% 29.68 in 10.0 mi WSW 9.2 mph - N/A   Overcast
10:32 PM 60.4 °F - 55.4 °F 83% 29.70 in 10.0 mi WNW 9.2 mph - N/A   Overcast
10:53 PM 55.8 °F - 52.0 °F 87% 29.72 in 4.0 mi West 9.2 mph 20.7 mph N/A   Drizzle
11:32 PM 51.8 °F - 49.1 °F 90% 29.77 in 5.0 mi WNW 8.1 mph - N/A Rain Heavy Rain
11:52 PM 50.9 °F - 48.2 °F 90% 29.79 in 4.0 mi West 8.1 mph 18.4 mph N/A Rain Heavy Rain